Погода в Средней Усьве

Россия / Пермский край     58°59′50″N   58°55′38″E
темп.,
°C
ветер,
м/с
пор.,
м/с
влажн.,
%
обл.,
%
осадки,
мм/ч
давл.,
гПа
погр.,
м
15 августа, пн
пн1523:00+9сз117249 0.0 102212
02:00+6з11852 0.0 102311
05:00+5з22895 0.0 102423
08:00+10сз39685 0.0 1024560
11:00+14ссз4545100 0.0 10231376
14:00+16сз454032 0.0 10231942
17:00+16сз564973 0.0 10231723
20:00+13зсз276279 0.0 1023328
16 августа, вт
вт1623:00+9зюз228180 0.0 102442
02:00+9з3108092 0.0 1024188
05:00+11з297521 0.0 1023260
08:00+13з25704 0.0 1023239
11:00+18сз48511 0.0 10221713
14:00+19сз58404 0.0 10222105
17:00+19сз58416 0.0 10221893
20:00+14сз395820 0.0 1023359
17 августа, ср
ср1723:00+9з227820 0.0 102517
02:00+8зсз22825 0.0 102519
05:00+7зсз228212 0.0 102517
08:00+12сз385812 0.0 1025537
11:00+16сз494333 0.0 10241385
14:00+16сз594354 0.0 10231456
17:00+17сз584412 0.0 10231707
20:00+14сз396058 0.0 1023454
18 августа, чт
чт1823:00+9сз22815 0.0 102417
02:00+6св11905 0.0 102510
05:00+5св118888 0.0 102710
08:00+9вюв116796 0.0 1026155
11:00+14ююв1148100 0.0 1026968
14:00+18св02375 0.0 10251826
17:00+18всв12365 0.0 10252015
20:00+11вюв11684 0.0 102611
19 августа, пт
пт1923:00+7юз00768 0.0 102810
02:00+6юз117750 0.0 102810
05:00+6з117730 0.0 102811
08:00+11зсз236140 0.0 1028149
11:00+18ссз34436 0.0 1027905
14:00+21ссз35425 0.0 10261634
17:00+21ссз464758 0.0 10261814
20:00+17сз39745 0.0 1026299